Voltar ao catálogo

STARLINK-3963

AtivoComunicaçõesVLEO
NORAD 52643·PAYLOAD·🇺🇸 United States

Lançado May 14, 2022 de Cape Canaveral Space Force Station

Loading…

Próximas Passagens (próximas 24 horas)

TLE

AtualizadoSource: CelesTrak SupGP

Época: Sep 14, 2026, 14:13 UTC

1 52643C 22052AX  26257.59284722  .00025995  00000+0  83586-3 0  2571
2 52643  53.1569 118.4769 0001301  97.1801  86.9381 15.31691520    17

Acompanhe STARLINK-3963 em tempo real com AllMySat

Download on the App Store